| DS18B20 | SHTC3 | PZEM-004T | WiFi | ||||||||
|---|---|---|---|---|---|---|---|---|---|---|---|
| ID | Date d/m/Y & Time | data1 สูง | data2 ต่ำ | data3 นอก | temp pcb | hum pcb | Volt | Amp | Watt | rssi | Time |
| 15543 | 24/08/2026 10:54:59 | 31.1  | 29.9  | 31.9  | 32.0  | 63.5  | 234.4  | 0.04  | 4.5  | -78  | 10:54 |
| 15542 | 24/08/2026 10:50:16 | 31.0  | 29.9  | 31.9  | 32.0  | 63.5  | 233.5  | 0.04  | 4.5  | -73  | 10:50 |
| 15541 | 24/08/2026 10:45:33 | 30.9  | 29.9  | 31.8  | 31.7  | 63.6  | 234.1  | 0.04  | 4.6  | -74  | 10:45 |
| 15540 | 24/08/2026 10:40:47 | 30.8  | 29.8  | 31.7  | 31.7  | 63.7  | 234.2  | 0.04  | 4.5  | -79  | 10:40 |
| 15539 | 24/08/2026 10:36:04 | 30.8  | 29.8  | 31.8  | 31.8  | 64.0  | 233.8  | 0.04  | 4.5  | -74  | 10:36 |
| 15538 | 24/08/2026 10:31:21 | 30.6  | 29.7  | 31.5  | 31.5  | 64.0  | 233.4  | 0.04  | 4.5  | -75  | 10:31 |
| 15537 | 24/08/2026 10:26:35 | 30.6  | 29.6  | 31.4  | 31.6  | 64.0  | 233.4  | 0.04  | 4.5  | -77  | 10:26 |
| 15536 | 24/08/2026 10:21:52 | 30.5  | 29.6  | 31.4  | 31.4  | 64.1  | 233.4  | 0.04  | 4.5  | -75  | 10:21 |
| 15535 | 24/08/2026 10:17:08 | 30.4  | 29.6  | 31.2  | 31.5  | 64.2  | 233.4  | 0.04  | 4.5  | -77  | 10:17 |
| 15534 | 24/08/2026 10:12:25 | 30.3  | 29.6  | 31.0  | 31.2  | 64.2  | 233.3  | 0.04  | 4.5  | -75  | 10:12 |
| 15533 | 24/08/2026 10:07:41 | 30.2  | 29.5  | 30.8  | 31.2  | 64.4  | 233.5  | 0.04  | 4.5  | -76  | 10:07 |
| 15532 | 24/08/2026 10:02:57 | 30.1  | 29.4  | 30.8  | 31.1  | 64.6  | 234.0  | 0.04  | 4.5  | -78  | 10:02 |
| 15531 | 24/08/2026 09:53:25 | 29.9  | 29.4  | 30.6  | 30.9  | 64.7  | 233.4  | 0.04  | 4.5  | -75  | 09:53 |
| 15530 | 24/08/2026 09:48:42 | 29.9  | 29.4  | 30.5  | 31.1  | 64.9  | 233.6  | 0.04  | 4.5  | -77  | 09:48 |
| 15529 | 24/08/2026 09:43:59 | 29.8  | 29.3  | 30.4  | 30.7  | 64.7  | 234.1  | 0.04  | 4.5  | -77  | 09:43 |
| 15528 | 24/08/2026 09:39:15 | 29.8  | 29.3  | 30.1  | 30.9  | 64.8  | 234.8  | 0.04  | 4.5  | -77  | 09:39 |
| 15527 | 24/08/2026 09:34:32 | 29.7  | 29.3  | 29.7  | 30.8  | 65.2  | 231.3  | 0.04  | 4.5  | -74  | 09:34 |
| 15526 | 24/08/2026 09:29:48 | 29.6  | 29.2  | 29.7  | 30.7  | 65.3  | 233.4  | 0.04  | 4.5  | -78  | 09:29 |
| 15525 | 24/08/2026 09:25:05 | 29.6  | 29.2  | 29.7  | 30.5  | 65.4  | 232.9  | 0.04  | 4.5  | -81  | 09:25 |
| 15524 | 24/08/2026 09:20:20 | 29.4  | 29.2  | 29.5  | 30.4  | 65.5  | 233.1  | 0.04  | 4.5  | -81  | 09:20 |
| 15523 | 24/08/2026 09:15:36 | 29.4  | 29.2  | 29.4  | 30.4  | 65.8  | 231.1  | 0.04  | 4.5  | -80  | 09:15 |
| 15522 | 24/08/2026 09:10:53 | 29.4  | 29.2  | 29.2  | 30.1  | 65.9  | 231.3  | 0.04  | 4.5  | -74  | 09:10 |
| 15521 | 24/08/2026 09:06:09 | 29.3  | 29.2  | 28.9  | 30.3  | 66.2  | 230.9  | 0.04  | 4.5  | -78  | 09:06 |
| 15520 | 24/08/2026 09:01:25 | 29.2  | 29.1  | 28.8  | 30.2  | 66.2  | 232.5  | 0.04  | 4.5  | -78  | 09:01 |